Wind_Speed
12 12 13 13 14 15 15 16 16 17 17 17 17 18 18 18 19 19 20 21 22 22 24 26 25 24 22 20 17 13 20 22 26 27 27 25 23 20 17 14 16 13 10 13 8 8 15
9 10 10 11 12 13 14 15 16 16 17 19 19 19 20 20 20 19 18 19 21 23 24 26 26 25 24 18 24 9 20 21 26 28 28 28 26 22 21 19 13 17 17 10 13 10 9
10 11 11 12 13 14 15 16 17 18 18 19 19 20 21 22 21 20 20 20 20 23 25 26 27 27 25 21 23 17 18 23 26 28 29 29 28 28 23 20 20 15 15 13 11 11 11
7 8 9 11 13 14 14 15 16 17 18 19 20 21 22 23 24 25 23 21 22 24 25 26 27 28 21 31 22 19 18 23 25 26 30 30 30 30 30 23 23 19 15 13 6 10 16
11 11 12 13 14 15 16 17 18 18 19 20 21 23 23 24 24 25 27 24 24 26 27 28 29 28 23 30 19 20 20 22 25 25 28 31 33 31 28 25 19 15 17 17 27 27 15
10 12 13 15 17 18 19 20 21 21 23 22 22 23 23 26 27 26 27 28 28 28 30 29 29 26 26 25 23 21 20 23 26 25 26 28 29 28 29 28 24 15 20 29 22 28 37
15 16 17 18 18 19 20 21 23 23 23 24 25 28 28 26 26 29 28 28 32 34 30 28 28 26 28 27 24 22 22 25 28 29 25 24 27 27 28 19 30 29 31 25 28 33 20
15 16 18 18 19 21 22 23 23 22 22 23 24 27 29 28 29 28 31 30 32 32 31 30 31 27 30 27 24 24 25 29 31 28 26 28 26 21 22 27 32 38 27 36 28 29 30
17 19 20 21 21 22 23 23 24 23 24 25 26 27 29 29 30 30 29 32 31 32 33 33 30 29 31 29 25 26 26 26 28 28 26 27 21 19 19 31 33 31 38 31 39 41 29
19 22 23 23 23 24 25 26 26 27 28 28 28 28 30 33 33 31 29 31 30 30 33 28 33 28 35 32 32 29 28 26 29 26 26 27 19 28 27 28 36 36 27 32 40 37 40
20 21 22 24 24 27 29 31 30 29 29 30 30 29 30 34 34 30 28 28 27 27 29 28 36 35 27 34 22 29 28 30 26 24 31 29 26 26 28 24 35 37 22 31 28 39 33
22 23 23 25 28 30 32 33 34 33 33 32 33 32 32 35 34 28 25 23 25 25 23 20 33 27 30 28 29 29 34 33 26 30 31 28 21 25 24 30 35 29 26 7 17 37 34
23 24 24 27 28 30 33 36 38 37 36 35 33 33 33 35 28 24 21 19 22 22 15 11 26 25 29 26 27 34 35 37 34 34 33 28 26 30 27 37 33 32 11 17 23 25 29
25 25 26 29 31 32 34 37 41 40 37 36 32 33 34 34 28 22 20 17 18 13 14 11 11 16 24 25 26 33 36 37 32 30 28 30 29 33 26 36 31 26 34 21 24 22 35
23 25 28 31 33 34 36 38 41 41 37 35 33 33 34 31 25 20 19 16 13 20 12 20 14 18 13 17 21 32 38 36 34 31 29 27 26 23 30 27 42 39 32 28 28 19 37
25 27 30 32 34 35 39 41 42 43 38 34 32 32 34 28 23 19 18 15 18 29 13 29 24 16 14 17 20 25 34 35 34 31 25 25 27 29 21 20 36 39 45 26 27 27 30
28 29 31 33 35 37 39 43 42 41 38 34 33 34 31 25 22 18 17 16 20 26 33 27 38 25 17 18 21 25 25 31 33 31 28 29 34 40 31 37 41 32 37 29 27 33 25
30 31 33 35 37 39 42 45 42 38 36 32 31 35 30 23 19 18 16 16 21 28 33 32 29 37 23 21 23 26 27 23 28 30 33 30 31 37 44 33 32 34 30 39 29 26 31
33 34 36 37 39 42 44 45 44 39 34 32 32 35 28 22 20 18 17 16 19 26 29 31 27 35 37 31 34 36 30 25 23 29 33 32 36 35 31 42 38 31 32 32 31 28 25
34 35 38 39 40 43 46 46 44 40 34 32 32 32 35 18 21 20 19 20 19 20 23 28 30 37 43 42 32 40 35 30 25 28 28 32 35 38 43 35 28 36 39 26 30 31 24
36 37 40 42 43 45 47 46 43 39 35 33 32 32 29 28 21 24 22 21 21 20 17 21 29 33 39 40 33 40 36 37 33 40 42 38 39 35 31 39 35 37 31 35 34 31 30
38 41 43 44 45 46 47 46 43 37 36 33 34 33 30 26 24 24 23 23 23 22 25 26 26 27 26 29 37 20 23 31 31 30 45 39 35 33 34 36 36 41 33 39 37 32 37
43 45 46 46 47 46 45 44 41 35 35 37 37 36 32 27 26 27 22 29 30 31 28 26 27 32 33 27 38 46 49 47 48 44 46 45 39 32 32 28 39 46 25 32 46 38 27
46 46 47 47 48 47 44 42 39 36 34 36 38 37 33 27 27 30 29 29 27 30 29 28 35 36 40 47 47 43 46 46 49 52 46 46 38 32 30 33 45 39 27 18 24 21 29
47 48 49 48 49 47 43 40 37 37 36 38 37 36 36 33 35 30 29 30 29 28 26 30 32 32 33 34 36 36 37 44 49 45 45 44 38 31 27 34 32 35 30 15 20 18 18
51 51 51 49 47 46 42 38 36 36 36 38 39 39 32 32 40 31 30 29 29 29 28 27 30 32 35 36 34 37 39 43 42 40 40 37 41 33 36 32 30 24 19 15 24 18 19
53 51 51 49 47 43 40 38 37 36 37 37 39 38 30 29 33 43 33 29 29 28 26 25 32 34 29 31 33 34 37 40 39 42 42 40 37 36 38 35 23 21 34 31 33 24 32
50 50 50 48 45 42 40 40 40 40 39 40 41 37 32 24 26 31 34 31 28 27 26 29 26 27 30 30 32 33 35 37 44 30 27 37 41 37 35 36 32 31 26 40 38 30 28
50 51 49 48 44 41 41 43 43 41 39 36 40 38 33 30 30 32 33 33 29 30 27 27 25 31 33 34 36 36 33 27 41 38 31 31 34 36 31 39 30 18 14 18 21 35 56
Wind_Direction
319 320 321 320 317 313 310 309 306 304 302 302 301 300 298 297 293 284 272 263 254 247 238 236 237 242 245 243 250 220 218 213 215 216 214 214 218 217 221 221 219 202 204 276 69 251 194
330 329 327 324 323 321 318 316 313 309 302 297 294 293 293 294 291 287 281 268 256 248 240 236 238 242 246 244 240 222 226 214 214 215 216 218 219 220 219 215 232 224 198 203 206 206 221
340 338 337 335 333 330 327 323 320 317 312 308 301 294 287 284 284 282 277 272 261 253 246 242 241 242 247 243 247 236 225 221 214 215 216 218 219 221 219 224 223 221 241 218 227 191 244
340 340 340 340 338 333 329 325 321 315 308 304 303 301 296 290 282 278 276 268 262 257 250 246 248 247 242 245 247 247 230 222 215 214 216 216 219 223 222 228 234 206 220 229 197 275 210
343 338 333 332 334 334 334 333 329 322 316 311 306 299 296 292 285 277 270 269 263 256 253 251 250 250 240 247 249 240 229 218 215 213 214 215 219 223 221 229 241 254 228 228 202 179 246
350 346 341 337 336 335 334 333 329 325 322 317 310 305 301 292 286 281 274 264 260 257 252 250 254 250 239 241 237 235 222 216 213 212 212 218 226 224 224 222 230 226 225 245 208 167 199
350 344 338 332 327 326 325 322 319 316 312 311 307 304 303 297 285 279 273 268 257 252 252 252 246 236 241 240 236 233 219 216 214 215 214 217 224 225 231 230 231 244 217 248 243 186 216
336 333 330 326 325 322 321 318 319 315 311 308 301 298 296 296 290 279 273 267 263 262 248 248 243 234 239 240 239 230 220 218 216 217 220 227 228 229 236 229 238 242 246 243 232 202 191
328 329 327 326 324 323 322 320 321 319 315 310 305 299 292 291 288 283 274 271 265 258 254 243 246 239 236 234 235 232 224 223 223 219 222 233 238 239 232 242 241 248 247 251 248 222 180
331 331 329 327 327 327 328 330 330 328 325 321 313 303 294 288 291 286 275 267 268 260 256 243 245 239 231 232 228 232 222 223 223 223 221 230 217 210 238 255 257 255 263 254 262 212 185
333 331 330 333 332 335 338 337 335 334 329 324 318 307 299 292 294 289 280 268 264 261 258 247 235 232 233 237 227 231 229 221 223 223 222 227 218 217 246 215 257 263 282 234 193 214 221
328 329 334 337 343 340 336 334 335 334 330 327 321 315 306 303 303 294 283 269 263 256 253 254 249 237 235 236 225 217 223 225 222 227 228 230 225 218 233 251 256 242 244 274 239 174 220
328 329 337 346 342 341 338 336 335 333 330 328 323 316 309 306 303 294 281 268 257 254 230 228 268 249 231 232 221 221 223 223 218 221 225 221 224 213 221 230 219 248 213 212 253 227 186
327 333 343 342 340 342 340 337 335 331 328 325 323 318 313 309 303 288 278 264 254 236 228 176 222 281 229 228 222 220 224 224 220 225 230 218 227 237 212 245 259 236 240 223 233 226 209
333 342 346 344 341 339 339 335 331 328 327 323 320 317 313 309 299 289 275 261 241 189 202 212 231 204 245 232 221 219 221 228 224 223 225 219 229 224 245 216 241 247 242 215 220 228 222
338 342 342 341 338 339 339 334 330 327 326 322 319 315 313 308 297 285 271 247 228 206 228 206 196 191 226 218 225 241 223 221 230 222 224 209 234 214 244 228 242 245 243 241 214 229 222
337 341 341 338 336 336 336 333 329 325 322 320 316 315 313 306 297 284 272 248 225 222 227 229 213 180 189 198 237 235 239 221 223 226 218 205 233 196 203 210 252 259 245 252 244 246 242
337 338 335 333 334 334 335 333 328 324 318 316 313 313 312 304 291 281 274 253 237 221 220 233 224 215 178 200 205 201 221 232 226 227 220 212 219 237 205 204 238 258 266 251 242 252 270
332 332 331 332 329 333 333 331 328 324 317 308 308 309 312 303 286 278 267 251 241 237 235 240 228 210 190 194 210 193 186 198 225 226 224 216 223 226 240 207 198 223 247 258 241 242 252
329 327 328 329 327 331 329 328 326 322 315 307 304 306 307 297 284 270 262 260 255 238 238 238 228 211 211 203 207 202 197 188 184 210 228 224 225 226 243 240 228 224 222 245 253 240 239
325 326 327 328 329 328 325 326 325 319 312 305 301 300 300 295 280 271 263 254 252 253 224 249 233 228 222 224 225 218 209 191 196 203 210 212 224 222 234 266 271 279 225 209 247 257 257
329 328 326 326 327 325 324 324 322 314 307 302 298 296 295 289 275 268 262 254 249 242 236 220 236 228 234 241 234 229 231 202 214 212 206 207 217 223 226 250 254 258 239 208 222 209 257
328 326 325 324 324 322 323 322 319 312 306 301 298 294 293 289 275 263 252 245 239 242 243 244 242 223 209 208 221 223 218 210 209 212 208 210 216 213 218 225 249 251 247 260 238 223 216
326 326 323 322 322 321 321 320 316 311 303 301 300 295 293 287 276 265 262 261 258 246 240 234 236 234 226 223 232 231 227 217 214 216 207 205 216 214 225 225 250 255 268 292 250 222 224
326 324 321 320 320 320 319 318 314 309 304 302 302 300 296 288 275 262 262 256 255 252 243 236 239 236 236 238 240 234 229 230 227 219 219 220 204 215 224 226 231 264 261 245 279 269 282
322 321 319 319 319 318 318 317 313 309 305 303 300 298 294 290 279 267 251 257 251 252 246 237 235 237 234 233 233 227 222 222 222 224 220 223 219 206 217 223 238 248 225 252 238 250 261
319 319 318 319 318 317 316 315 313 309 305 303 299 297 295 293 276 272 249 243 249 247 247 240 235 234 235 231 227 223 220 218 218 219 215 217 216 215 216 215 220 231 226 230 208 211 215
317 318 317 318 316 315 314 315 313 311 305 300 294 291 290 291 281 269 251 241 247 252 244 238 239 230 224 224 223 219 217 209 210 202 224 221 216 216 215 217 217 229 238 229 219 196 222
316 318 317 317 314 315 315 315 315 313 310 303 299 294 288 285 288 274 257 247 242 248 244 240 232 231 226 218 211 211 206 206 198 193 197 220 228 220 219 217 199 224 239 223 222 214 227
Height
5874 5872 5871 5869 5867 5866 5864 5863 5861 5860 5859 5858 5857 5856 5855 5854 5853 5852 5852 5853 5854 5855 5856 5857 5859 5860 5862 5864 5867 5870 5871 5873 5875 5878 5881 5883 5886 5888 5890 5892 5889 5900 5902 5898 5897 5907 5908
5872 5870 5869 5867 5866 5864 5862 5860 5859 5857 5856 5854 5853 5852 5851 5850 5850 5849 5849 5849 5849 5850 5851 5852 5854 5855 5857 5862 5859 5866 5867 5869 5871 5874 5877 5880 5883 5886 5887 5890 5891 5889 5896 5894 5901 5906 5904
5870 5868 5867 5865 5863 5861 5860 5857 5856 5854 5853 5851 5850 5848 5847 5846 5846 5845 5845 5845 5846 5846 5847 5848 5849 5850 5853 5857 5856 5860 5862 5864 5867 5870 5874 5877 5879 5882 5885 5889 5889 5889 5898 5895 5897 5900 5906
5870 5868 5866 5864 5862 5860 5857 5855 5853 5851 5849 5847 5846 5844 5843 5842 5842 5841 5841 5841 5841 5841 5842 5844 5845 5845 5851 5847 5853 5855 5858 5860 5863 5867 5870 5872 5875 5878 5881 5884 5885 5887 5891 5894 5897 5901 5904
5869 5867 5865 5863 5860 5858 5856 5853 5851 5848 5846 5844 5842 5840 5838 5837 5836 5836 5836 5837 5836 5835 5836 5838 5839 5842 5846 5843 5850 5850 5853 5856 5859 5863 5866 5868 5870 5873 5878 5880 5885 5887 5891 5892 5889 5886 5905
5868 5866 5864 5861 5858 5856 5853 5850 5847 5845 5842 5840 5837 5835 5833 5832 5830 5829 5829 5830 5830 5829 5829 5831 5833 5838 5839 5840 5843 5846 5849 5851 5855 5859 5862 5865 5867 5869 5873 5877 5884 5889 5887 5882 5888 5888 5881
5867 5864 5862 5859 5856 5853 5851 5849 5846 5842 5839 5836 5833 5830 5827 5825 5823 5822 5822 5822 5822 5822 5823 5826 5827 5831 5832 5835 5838 5842 5845 5847 5851 5854 5858 5862 5862 5865 5870 5875 5872 5862 5880 5874 5885 5887 5882
5865 5863 5860 5857 5854 5851 5848 5845 5842 5838 5835 5831 5827 5823 5821 5819 5816 5815 5814 5813 5812 5815 5818 5818 5819 5824 5825 5830 5834 5837 5839 5843 5845 5850 5855 5856 5858 5865 5866 5868 5869 5872 5876 5876 5880 5885 5889
5864 5860 5857 5853 5850 5847 5844 5840 5837 5833 5829 5825 5821 5817 5813 5811 5808 5807 5806 5805 5805 5805 5808 5812 5814 5817 5821 5825 5829 5832 5835 5840 5843 5847 5851 5853 5858 5861 5863 5861 5865 5868 5870 5876 5873 5880 5885
5859 5856 5853 5849 5846 5842 5838 5835 5832 5827 5823 5819 5815 5811 5807 5804 5802 5798 5797 5796 5797 5798 5798 5807 5806 5811 5811 5817 5821 5827 5830 5835 5837 5843 5847 5849 5855 5858 5860 5860 5862 5862 5866 5870 5863 5864 5876
5856 5853 5849 5845 5841 5837 5833 5829 5826 5821 5816 5812 5808 5804 5800 5796 5793 5789 5789 5789 5789 5791 5793 5795 5796 5800 5808 5808 5823 5821 5827 5828 5834 5839 5841 5845 5849 5855 5856 5858 5859 5859 5863 5858 5859 5867 5862
5853 5849 5845 5840 5836 5832 5827 5823 5819 5815 5810 5806 5801 5797 5793 5789 5785 5783 5781 5781 5783 5786 5788 5791 5788 5797 5799 5805 5811 5816 5819 5824 5830 5832 5834 5840 5846 5851 5859 5859 5857 5851 5854 5855 5862 5865 5858
5849 5845 5840 5835 5832 5827 5822 5817 5812 5809 5804 5799 5794 5789 5785 5780 5778 5776 5775 5775 5778 5780 5787 5790 5786 5791 5794 5799 5805 5808 5812 5816 5820 5824 5828 5836 5841 5846 5851 5852 5848 5848 5840 5860 5864 5866 5866
5845 5840 5834 5831 5827 5822 5817 5812 5807 5803 5798 5792 5787 5782 5778 5773 5770 5770 5769 5770 5772 5778 5784 5785 5790 5786 5788 5793 5799 5802 5806 5810 5816 5821 5826 5830 5838 5839 5843 5842 5843 5849 5845 5852 5858 5864 5869
5840 5834 5829 5826 5822 5817 5811 5806 5800 5796 5791 5785 5780 5776 5770 5766 5763 5763 5764 5764 5769 5773 5775 5780 5784 5785 5789 5790 5794 5797 5800 5805 5812 5816 5820 5827 5833 5839 5840 5846 5840 5842 5842 5844 5852 5856 5862
5835 5829 5824 5820 5816 5811 5805 5800 5795 5788 5785 5779 5774 5770 5765 5761 5758 5757 5758 5759 5760 5763 5765 5770 5773 5780 5786 5792 5794 5795 5796 5802 5806 5811 5817 5823 5826 5833 5835 5838 5834 5836 5840 5831 5844 5850 5854
5830 5824 5819 5815 5810 5805 5798 5794 5788 5782 5777 5773 5767 5762 5757 5754 5752 5752 5752 5753 5754 5757 5758 5761 5765 5769 5775 5786 5792 5793 5794 5798 5803 5807 5812 5817 5819 5825 5822 5827 5823 5832 5835 5838 5841 5843 5846
5824 5819 5814 5809 5803 5797 5791 5786 5780 5775 5769 5765 5761 5755 5750 5748 5747 5746 5746 5747 5748 5748 5749 5752 5756 5762 5765 5774 5777 5782 5790 5795 5800 5802 5805 5812 5817 5813 5815 5823 5830 5827 5828 5831 5834 5839 5837
5818 5813 5807 5802 5796 5789 5783 5778 5771 5767 5762 5757 5753 5748 5745 5742 5740 5739 5740 5741 5741 5742 5743 5745 5749 5755 5757 5761 5766 5771 5777 5789 5795 5798 5800 5808 5809 5816 5803 5814 5810 5822 5816 5826 5831 5831 5837
5811 5806 5800 5794 5788 5781 5775 5769 5763 5757 5753 5749 5745 5741 5735 5737 5734 5733 5733 5734 5735 5735 5736 5737 5741 5745 5750 5754 5758 5765 5770 5778 5786 5793 5798 5800 5804 5807 5803 5809 5808 5816 5824 5825 5824 5824 5832
5803 5797 5792 5786 5779 5773 5766 5760 5754 5749 5744 5741 5738 5734 5731 5728 5727 5724 5725 5726 5727 5730 5729 5732 5734 5738 5742 5746 5751 5756 5762 5769 5772 5778 5783 5790 5794 5802 5808 5803 5804 5811 5812 5812 5823 5823 5822
5796 5789 5783 5777 5770 5763 5757 5750 5745 5739 5735 5732 5728 5725 5723 5721 5719 5717 5717 5719 5719 5722 5723 5722 5726 5729 5736 5740 5744 5750 5755 5760 5764 5772 5778 5782 5787 5795 5801 5802 5805 5800 5804 5801 5813 5814 5821
5787 5781 5774 5767 5760 5754 5747 5740 5734 5730 5726 5721 5718 5715 5713 5712 5711 5710 5709 5705 5707 5707 5712 5716 5717 5718 5723 5730 5726 5733 5736 5747 5753 5759 5768 5777 5783 5788 5794 5803 5790 5787 5798 5804 5806 5811 5811
5778 5772 5764 5757 5751 5744 5737 5730 5724 5720 5716 5712 5708 5705 5703 5703 5700 5699 5699 5698 5699 5699 5702 5705 5706 5709 5711 5712 5717 5726 5733 5741 5745 5750 5758 5766 5774 5783 5789 5795 5783 5788 5796 5800 5796 5804 5809
5769 5762 5755 5748 5741 5733 5727 5721 5715 5709 5705 5701 5698 5696 5692 5690 5687 5687 5689 5688 5689 5690 5693 5695 5698 5703 5705 5709 5713 5720 5727 5735 5740 5749 5756 5763 5769 5776 5780 5782 5791 5793 5798 5792 5800 5798 5804
5761 5753 5745 5738 5732 5724 5717 5711 5706 5700 5695 5691 5687 5684 5681 5680 5674 5675 5676 5678 5678 5680 5683 5686 5689 5691 5694 5699 5704 5709 5717 5727 5736 5745 5751 5757 5763 5769 5773 5778 5784 5791 5792 5782 5794 5800 5805
5750 5743 5735 5728 5721 5714 5708 5702 5697 5691 5686 5681 5677 5674 5671 5670 5665 5659 5665 5667 5668 5670 5673 5676 5676 5681 5688 5692 5696 5702 5710 5718 5726 5735 5744 5749 5755 5760 5768 5772 5780 5783 5784 5789 5790 5800 5793
5740 5732 5725 5718 5711 5704 5698 5692 5686 5681 5676 5671 5666 5664 5661 5660 5657 5652 5654 5657 5660 5662 5664 5666 5671 5675 5678 5684 5689 5695 5700 5708 5719 5729 5739 5744 5750 5755 5762 5768 5774 5768 5776 5779 5782 5784 5791
5729 5722 5714 5708 5701 5695 5688 5682 5676 5670 5665 5659 5653 5651 5650 5648 5648 5642 5644 5647 5650 5652 5656 5658 5663 5664 5669 5674 5677 5684 5690 5699 5710 5720 5731 5740 5744 5751 5757 5763 5768 5765 5771 5770 5774 5778 5777